When you browse on this site, cookies collect data to enhance your experience and personalize the content and advertising you see.
Visit our Privacy Policy to learn more. By continuing to use the site, you agree to this use of cookies and data.
  • în România
  • Lista ţărilor
  • Pe 7 zile
  • Temperatura apei
  • Meteo pe hartă
  • Widget-uri
  • user-avatar
    Intrare

    Meteo pe oră la La-Plata

    Astăzi, 11 Decembrie, Miercuri

    Timp Temperatura Precipitaţii Vânt Presiune Umiditate
    00:00 +29°C° 0 mm 4 m/s 753 mmHg 36%
    01:00 +29°C° 0 mm 5 m/s 753 mmHg 38%
    02:00 +29°C° 0 mm 5 m/s 753 mmHg 41%
    03:00 +28°C° 0 mm 5 m/s 753 mmHg 41%
    04:00 +28°C° 0 mm 5 m/s 752 mmHg 41%
    05:00 +28°C° 0 mm 5 m/s 752 mmHg 41%
    06:00 +29°C° 0 mm 5 m/s 752 mmHg 37%
    07:00 +32°C° 0 mm 5 m/s 752 mmHg 33%
    08:00 +34°C° 0 mm 6 m/s 752 mmHg 30%
    09:00 +35°C° 0 mm 6 m/s 752 mmHg 27%
    10:00 +38°C° 0 mm 6 m/s 752 mmHg 24%
    11:00 +40°C° 0 mm 5 m/s 751 mmHg 21%
    12:00 +41°C° 0 mm 5 m/s 750 mmHg 20%
    13:00 +42°C° 0 mm 5 m/s 749 mmHg 18%
    14:00 +42°C° 0 mm 5 m/s 748 mmHg 17%
    15:00 +36°C° 0.3 mm 6 m/s 748 mmHg 32%
    16:00 +30°C° 0.3 mm 7 m/s 748 mmHg 48%
    17:00 +24°C° 0.3 mm 8 m/s 748 mmHg 63%
    18:00 +24°C° 0.3 mm 6 m/s 749 mmHg 66%
    19:00 +25°C° 0.3 mm 5 m/s 750 mmHg 69%
    20:00 +23°C° 0.3 mm 4 m/s 750 mmHg 71%
    21:00 +24°C° 0.8 mm 3 m/s 750 mmHg 74%
    22:00 +24°C° 0.8 mm 3 m/s 751 mmHg 76%
    23:00 +24°C° 0.8 mm 3 m/s 751 mmHg 79%

    Mâine, 12 Decembrie, Joi

    Timp Temperatura Precipitaţii Vânt Presiune Umiditate
    00:00 +22°C° 0.4 mm 3 m/s 751 mmHg 81%
    01:00 +22°C° 0.4 mm 4 m/s 751 mmHg 83%
    02:00 +21°C° 0.4 mm 4 m/s 750 mmHg 86%
    03:00 +21°C° 0 mm 4 m/s 750 mmHg 86%
    04:00 +21°C° 0 mm 4 m/s 751 mmHg 85%
    05:00 +21°C° 0 mm 4 m/s 751 mmHg 85%
    06:00 +23°C° 0 mm 5 m/s 751 mmHg 65%
    07:00 +26°C° 0 mm 6 m/s 751 mmHg 45%
    08:00 +28°C° 0 mm 7 m/s 752 mmHg 24%
    09:00 +31°C° 0 mm 8 m/s 752 mmHg 22%
    10:00 +32°C° 0 mm 8 m/s 752 mmHg 19%
    11:00 +33°C° 0 mm 9 m/s 752 mmHg 17%
    12:00 +33°C° 0 mm 8 m/s 752 mmHg 16%
    13:00 +33°C° 0 mm 8 m/s 753 mmHg 15%
    14:00 +33°C° 0 mm 7 m/s 753 mmHg 14%
    15:00 +32°C° 0 mm 7 m/s 753 mmHg 15%
    16:00 +30°C° 0 mm 7 m/s 753 mmHg 17%
    17:00 +29°C° 0 mm 7 m/s 753 mmHg 18%
    18:00 +26°C° 0 mm 6 m/s 754 mmHg 22%
    19:00 +23°C° 0 mm 6 m/s 756 mmHg 26%
    20:00 +20°C° 0 mm 6 m/s 757 mmHg 30%
    21:00 +19°C° 0 mm 6 m/s 757 mmHg 35%
    22:00 +16°C° 0 mm 5 m/s 758 mmHg 39%
    23:00 +15°C° 0 mm 5 m/s 759 mmHg 44%

    Poimâine, 13 Decembrie, Vineri

    Timp Temperatura Precipitaţii Vânt Presiune Umiditate
    00:00 +14°C° 0 mm 5 m/s 759 mmHg 48%
    01:00 +13°C° 0 mm 4 m/s 760 mmHg 52%
    02:00 +12°C° 0 mm 4 m/s 760 mmHg 55%
    03:00 +11°C° 0 mm 4 m/s 760 mmHg 60%
    04:00 +10°C° 0 mm 4 m/s 760 mmHg 64%
    05:00 +8°C° 0 mm 4 m/s 760 mmHg 68%
    06:00 +12°C° 0 mm 3 m/s 761 mmHg 56%
    07:00 +14°C° 0 mm 3 m/s 761 mmHg 44%
    08:00 +17°C° 0 mm 3 m/s 761 mmHg 32%
    09:00 +20°C° 0 mm 2 m/s 761 mmHg 26%
    10:00 +24°C° 0 mm 2 m/s 761 mmHg 19%
    11:00 +26°C° 0 mm 2 m/s 761 mmHg 13%
    12:00 +27°C° 0 mm 3 m/s 760 mmHg 14%
    13:00 +27°C° 0 mm 3 m/s 760 mmHg 16%
    14:00 +27°C° 0 mm 4 m/s 759 mmHg 18%
    15:00 +26°C° 0 mm 4 m/s 759 mmHg 22%
    16:00 +25°C° 0 mm 5 m/s 758 mmHg 26%
    17:00 +22°C° 0 mm 5 m/s 758 mmHg 31%
    18:00 +21°C° 0 mm 5 m/s 758 mmHg 33%
    19:00 +20°C° 0 mm 5 m/s 758 mmHg 36%
    20:00 +19°C° 0 mm 5 m/s 759 mmHg 39%
    21:00 +19°C° 0 mm 6 m/s 759 mmHg 43%
    22:00 +19°C° 0 mm 6 m/s 759 mmHg 47%
    23:00 +19°C° 0 mm 6 m/s 759 mmHg 51%

    14 Decembrie, Sâmbătă

    Timp Temperatura Precipitaţii Vânt Presiune Umiditate
    00:00 +18°C° 0 mm 7 m/s 759 mmHg 52%
    01:00 +18°C° 0 mm 8 m/s 758 mmHg 53%
    02:00 +18°C° 0 mm 8 m/s 758 mmHg 54%
    03:00 +18°C° 0 mm 8 m/s 758 mmHg 55%
    04:00 +17°C° 0 mm 8 m/s 758 mmHg 56%
    05:00 +17°C° 0 mm 8 m/s 758 mmHg 57%
    06:00 +20°C° 0 mm 8 m/s 758 mmHg 52%
    07:00 +21°C° 0 mm 8 m/s 758 mmHg 47%
    08:00 +22°C° 0 mm 8 m/s 758 mmHg 42%
    09:00 +26°C° 0 mm 8 m/s 758 mmHg 37%
    10:00 +28°C° 0 mm 7 m/s 757 mmHg 31%
    11:00 +30°C° 0 mm 7 m/s 757 mmHg 25%
    12:00 +33°C° 0 mm 6 m/s 756 mmHg 22%
    13:00 +34°C° 0 mm 5 m/s 755 mmHg 19%
    14:00 +36°C° 0 mm 4 m/s 754 mmHg 16%
    15:00 +36°C° 0 mm 3 m/s 754 mmHg 16%
    16:00 +36°C° 0 mm 3 m/s 754 mmHg 15%
    17:00 +36°C° 0 mm 2 m/s 753 mmHg 15%
    18:00 +34°C° 0 mm 2 m/s 754 mmHg 20%
    19:00 +30°C° 0 mm 3 m/s 754 mmHg 26%
    20:00 +28°C° 0 mm 3 m/s 755 mmHg 31%
    21:00 +27°C° 0 mm 3 m/s 755 mmHg 37%
    22:00 +26°C° 0 mm 3 m/s 755 mmHg 43%
    23:00 +25°C° 0 mm 3 m/s 755 mmHg 48%

    15 Decembrie, Duminică

    Timp Temperatura Precipitaţii Vânt Presiune Umiditate
    00:00 +24°C° 0 mm 3 m/s 755 mmHg 51%
    01:00 +22°C° 0 mm 3 m/s 755 mmHg 53%
    02:00 +21°C° 0 mm 3 m/s 755 mmHg 55%
    03:00 +20°C° 0 mm 3 m/s 756 mmHg 58%
    04:00 +19°C° 0 mm 4 m/s 756 mmHg 61%
    05:00 +19°C° 0 mm 5 m/s 756 mmHg 64%
    06:00 +21°C° 0 mm 5 m/s 757 mmHg 56%
    07:00 +25°C° 0 mm 5 m/s 757 mmHg 48%
    08:00 +27°C° 0 mm 5 m/s 758 mmHg 40%
    09:00 +29°C° 0 mm 5 m/s 758 mmHg 35%
    10:00 +32°C° 0 mm 5 m/s 758 mmHg 31%
    11:00 +34°C° 0 mm 5 m/s 757 mmHg 26%
    12:00 +34°C° 0 mm 6 m/s 757 mmHg 24%
    13:00 +34°C° 0 mm 7 m/s 757 mmHg 22%
    14:00 +34°C° 0 mm 8 m/s 756 mmHg 20%
    15:00 +32°C° 0 mm 9 m/s 756 mmHg 24%
    16:00 +29°C° 0 mm 9 m/s 757 mmHg 28%
    17:00 +28°C° 0 mm 9 m/s 757 mmHg 32%
    18:00 +24°C° 0 mm 9 m/s 757 mmHg 39%
    19:00 +22°C° 0 mm 8 m/s 758 mmHg 47%
    20:00 +18°C° 0 mm 7 m/s 759 mmHg 54%
    21:00 +17°C° 0 mm 7 m/s 759 mmHg 58%
    22:00 +17°C° 0 mm 6 m/s 759 mmHg 62%
    23:00 +16°C° 0 mm 6 m/s 759 mmHg 66%

    16 Decembrie, Luni

    Timp Temperatura Precipitaţii Vânt Presiune Umiditate
    00:00 +15°C° 0 mm 5 m/s 759 mmHg 68%
    01:00 +15°C° 0 mm 5 m/s 759 mmHg 70%
    02:00 +15°C° 0 mm 4 m/s 759 mmHg 72%
    03:00 +15°C° 0 mm 4 m/s 759 mmHg 73%
    04:00 +14°C° 0 mm 4 m/s 759 mmHg 75%
    05:00 +14°C° 0 mm 3 m/s 759 mmHg 76%
    06:00 +18°C° 0 mm 3 m/s 759 mmHg 65%
    07:00 +21°C° 0 mm 3 m/s 759 mmHg 53%
    08:00 +25°C° 0 mm 2 m/s 760 mmHg 42%
    09:00 +27°C° 0 mm 3 m/s 759 mmHg 36%
    10:00 +29°C° 0 mm 3 m/s 759 mmHg 30%
    11:00 +31°C° 0 mm 3 m/s 759 mmHg 25%
    12:00 +30°C° 0 mm 4 m/s 758 mmHg 29%
    13:00 +29°C° 0 mm 6 m/s 758 mmHg 34%
    14:00 +28°C° 0 mm 7 m/s 757 mmHg 39%
    15:00 +27°C° 0 mm 7 m/s 757 mmHg 43%
    16:00 +26°C° 0 mm 7 m/s 757 mmHg 47%
    17:00 +24°C° 0 mm 8 m/s 757 mmHg 51%
    18:00 +23°C° 0 mm 7 m/s 757 mmHg 55%
    19:00 +21°C° 0 mm 7 m/s 758 mmHg 59%
    20:00 +20°C° 0 mm 6 m/s 758 mmHg 63%
    21:00 +20°C° 0 mm 6 m/s 758 mmHg 64%
    22:00 +20°C° 0 mm 5 m/s 759 mmHg 64%
    23:00 +20°C° 0 mm 4 m/s 759 mmHg 65%
    Arată mai mult